Location: Arbon
(43.0005°N, 0.7472°E)
Time: 00:16:37
(UTC+00:00)

S-56A Canister/Altair - Pass Details

Date: 06 December 2020
Orbit: 633 x 2499 km, 38.9° (Epoch: 19 January)

Event Time Altitude Azimuth Distance (km) Brightness Sun altitude
Rises 19:29:43 0° 265° (W) 5,934 13.1 -33.4°
Reaches altitude 10° 19:33:56 10° 264° (W) 4,741 12.3 -34.2°
Maximum altitude 19:46:31 71° 184° (S) 1,748 9.1 -36.5°
Enters shadow 19:46:54 70° 170° (S) 1,734 9.0 -36.6°
